This is the latest recevied weather packets stored in our database for station/object N4TLC. If no packets are shown the sender has not sent any weather packets the latest 10 day(s).
| Time | Temp. | Humidity | Pressure | Rain* | Wind** | Luminosity | Snow |
|---|---|---|---|---|---|---|---|
| 1777681740 | 14.44° C | 69% | 1013.9 hPa | 0 mm | - | 0 W/m² | - |
| 1777681437 | 14.44° C | 68% | 1014.2 hPa | 0 mm | - | 0 W/m² | - |
| 1777681135 | 14.44° C | 67% | 1014 hPa | 0 mm | - | 0 W/m² | - |
| 1777680832 | 15° C | 67% | 1013.9 hPa | 0 mm | - | 1 W/m² | - |
| 1777680530 | 15° C | 66% | 1013.8 hPa | 0 mm | - | 2 W/m² | - |
| 1777680228 | 15° C | 65% | 1013.7 hPa | 0 mm | - | 3 W/m² | - |
| 1777679924 | 15° C | 64% | 1013.4 hPa | 0 mm | - | 5 W/m² | - |
| 1777679619 | 15° C | 63% | 1013.6 hPa | 0 mm | - | 7 W/m² | - |
| 1777679314 | 15.56° C | 62% | 1013.5 hPa | 0 mm | - | 9 W/m² | - |
| 1777679012 | 15.56° C | 61% | 1013.5 hPa | 0 mm | - | 12 W/m² | - |
| 1777678711 | 15.56° C | 59% | 1013.4 hPa | 0 mm | - | 17 W/m² | - |
| 1777678407 | 16.11° C | 58% | 1013.7 hPa | 0 mm | - | 20 W/m² | - |
| 1777678103 | 16.11° C | 57% | 1013.7 hPa | 0 mm | - | 26 W/m² | - |
| 1777677801 | 16.67° C | 56% | 1013.5 hPa | 0 mm | - | 43 W/m² | - |
| 1777677498 | 16.67° C | 55% | 1013.5 hPa | 0 mm | - | 35 W/m² | - |
| 1777677196 | 17.78° C | 52% | 1013.5 hPa | 0 mm | - | 56 W/m² | - |
| 1777676894 | 18.33° C | 52% | 1013.7 hPa | 0 mm | - | 88 W/m² | - |
| 1777676593 | 17.78° C | 52% | 1013.6 hPa | 0 mm | - | 89 W/m² | - |
| 1777676290 | 17.78° C | 51% | 1013.8 hPa | 0 mm | - | 105 W/m² | - |
| 1777675987 | 18.33° C | 51% | 1013.6 hPa | 0 mm | - | 139 W/m² | - |
| 1777675683 | 18.33° C | 51% | 1013.5 hPa | 0 mm | - | 152 W/m² | - |
| 1777675381 | 18.89° C | 49% | 1013.3 hPa | 0 mm | - | 173 W/m² | - |
| 1777675076 | 18.89° C | 49% | 1013.4 hPa | 0 mm | - | 192 W/m² | - |
| 1777674773 | 18.89° C | 49% | 1013.6 hPa | 0 mm | - | 202 W/m² | - |
| 1777674470 | 18.89° C | 49% | 1013.5 hPa | 0 mm | - | 222 W/m² | - |
* Rain latest hour (hover to see other rain measurements)
** Current wind speed in m/s (hover to see current wind gust speed)